Content
SEND FEEDBACK

United Kingdom Flag

SOUTH ACTON, ENGLAND


Home > Europe > United Kingdom > England
Elevation: 16 feet     Latitude: 51 30N     Longitude: 000 18W

WEATHER
 
SELECT A DAY
Number of Records: 176,548;   Date Range: 7/1/96 - 3/22/16
 
SHARE

PRINT THIS DATA

[ ← Previous Day ]
WEATHER ALMANAC - SEPTEMBER 30, 2013
[ Next Day → ]
[ °C ]   °F
Weather ElementAverageHighLow
Temperature59.6 °F68 °F (2:50 pm)53.6 °F (11:50 pm)
Dewpoint50.8 °F54 °F (9:50 am)48 °F (3:50 pm)
Humidity72.3 %88 % (5:50 am)44 % (3:50 pm)
Barometer29.72 in29.79 in (9:50 pm)29.68 in (3:50 am)
Wind Speed9.7 mph13.8 mph (11:50 am)
Weather ElementAverage
Visibility8.3 mi
Wind DirectionE (88.2 °)

Weather ElementTotal
Precipitation---
Heating Degree Days4.2 (Base 65)
Growing Degree Days10.8 (Base 50)
Averaged from 33 records on September 30, 2013
WEATHER CONDITIONS BREAKOUT
WIND DIRECTION BREAKOUT
WEATHER BY HOUR - SEPTEMBER 30, 2013
[ °C ]   °F
Local TimeTemperatureDewpointHumidityBarometerVisibilityWind DirectionWind SpeedGust SpeedPrecipitationEventsConditions
12:50 AM59.0 °F51.8 °F77 %29.71 in6.2 miEast (80°)10.4 mphScattered Clouds
1:50 AM59.0 °F51.8 °F77 %29.71 in6.2 miEast (80°)6.9 mphMostly Cloudy
2:50 AM59.0 °F51.8 °F77 %29.71 in6.2 miENE (70°)5.8 mphMostly Cloudy
3:50 AM57.2 °F51.8 °F82 %29.68 in6.2 miEast (80°)8.1 mphPartly Cloudy
4:50 AM57.2 °F51.8 °F82 %29.68 in6.2 miEast (80°)8.1 mphPartly Cloudy
5:50 AM55.4 °F51.8 °F88 %29.68 in6.2 miEast (80°)8.1 mph
6:50 AM56.0 °F52.0 °F81 %29.70 in12.0 miEast (80°)9.2 mphMostly Cloudy
6:50 AM55.4 °F51.8 °F88 %29.68 in6.2 miEast (80°)9.2 mphMostly Cloudy
7:33 AM57.2 °F51.8 °F82 %29.68 in6.2 miENE (70°)10.4 mphPartly Cloudy
7:50 AM57.2 °F51.8 °F82 %29.71 in6.2 miENE (70°)6.9 mphPartly Cloudy
8:18 AM57.2 °F53.6 °F88 %29.71 in6.2 miEast (90°)6.9 mphScattered Clouds
8:27 AM57.2 °F53.6 °F88 %29.71 in6.2 miEast (80°)8.1 mphPartly Cloudy
8:50 AM59.0 °F53.6 °F82 %29.71 in6.2 miEast (90°)8.1 mphPartly Cloudy
9:50 AM61.0 °F54.0 °F71 %29.73 in12.0 miEast (100°)8.1 mphScattered Clouds
9:50 AM60.8 °F53.6 °F77 %29.71 in6.2 miEast (100°)8.1 mphMostly Cloudy
10:50 AM62.6 °F53.6 °F72 %29.71 in6.2 miEast (90°)11.5 mphMostly Cloudy
11:50 AM62.6 °F50.0 °F63 %29.71 in6.2 miEast (100°)13.8 mphMostly Cloudy
12:50 PM66.0 °F50.0 °F45 %29.73 in19.0 miEast (90°)13.8 mphScattered Clouds
12:50 PM66.2 °F50.0 °F56 %29.71 in6.2 miEast (90°)13.8 mphMostly Cloudy
1:50 PM66.2 °F48.2 °F52 %29.71 in6.2 miEast (100°)12.7 mphMostly Cloudy
2:50 PM68.0 °F48.2 °F49 %29.71 in6.2 miESE (110°)12.7 mphMostly Cloudy
3:50 PM65.0 °F48.0 °F44 %29.73 in22.0 miEast (100°)12.7 mphScattered Clouds
3:50 PM64.4 °F48.2 °F56 %29.71 in6.2 miEast (100°)12.7 mphMostly Cloudy
4:50 PM64.4 °F48.2 °F56 %29.71 in6.2 miEast (100°)10.4 mphScattered Clouds
5:50 PM62.6 °F50.0 °F63 %29.74 inESE (110°)10.4 mphClear
6:50 PM59.0 °F48.2 °F67 %29.74 inEast (90°)11.5 mphClear
6:50 PM60.0 °F48.0 °F56 %29.75 in19.0 miEast (90°)11.5 mphPartly Cloudy
7:50 PM57.2 °F50.0 °F77 %29.77 inEast (90°)12.7 mphClear
8:50 PM55.4 °F50.0 °F82 %29.77 inEast (90°)9.2 mphClear
9:50 PM55.0 °F49.0 °F75 %29.79 in9.0 miEast (80°)8.1 mphScattered Clouds
9:50 PM55.4 °F50.0 °F82 %29.77 inEast (80°)8.1 mphClear
10:50 PM55.4 °F50.0 °F82 %29.77 inEast (90°)6.9 mphClear
11:50 PM53.6 °F50.0 °F88 %29.77 inEast (80°)5.8 mphClear
Hourly data recorded from EGWU, located miles away from South Acton, England




STORIES FROM OUR PARTNERS